Location: Cesena
(44.1430°N, 12.2500°E)
Time: 10:19:41
(UTC+01:00)

ISS - Visible Passes

Search period start: 17 January 2019 00:00
Search period end: 27 January 2019 00:00
Orbit: 404 x 407 km, 51.6° (Epoch: 17 January)

Date Brightness Start Highest point End Pass type
(mag) Time Alt. Az. Time Alt. Az. Time Alt. Az.
21 Jan -1.8 18:42:46 10° S 18:44:18 17° SSE 18:44:18 17° SSE visible
22 Jan -1.7 19:26:03 10° SW 19:27:33 25° SW 19:27:33 25° SW visible
23 Jan -3.2 18:34:20 10° SSW 18:37:25 39° SE 18:38:01 35° ESE visible
24 Jan -2.2 17:42:59 10° S 17:45:36 22° SE 17:48:14 10° E visible
24 Jan -2.6 19:18:39 10° WSW 19:21:05 41° WNW 19:21:05 41° WNW visible
25 Jan -3.9 18:26:35 10° WSW 18:29:52 90° SE 18:31:23 29° ENE visible
25 Jan -0.3 20:03:51 10° WNW 20:04:04 11° WNW 20:04:04 11° WNW visible
26 Jan -2.4 19:11:30 10° W 19:14:18 32° NNW 19:14:18 32° NNW visible
